Погода в Екатериновке

Россия / Саратовская область     52°03′01″N   44°20′42″E
темп.,
°C
ветер,
м/с
пор.,
м/с
влажн.,
%
обл.,
%
осадки,
мм/ч
давл.,
гПа
погр.,
м
18 мая, вт
вт1801:00+17вюв5144976 0.0 1013200
04:00+16вюв513515 0.0 1013184
07:00+17вюв513597 0.0 1012229
10:00+23вюв712444 0.0 1011420
13:00+27вюв813365 0.0 1011949
16:00+28вюв813330 0.0 10103019
19:00+24вюв615430 0.0 1010442
22:00+21вюв6174423 0.0 1009339
19 мая, ср
ср1901:00+19вюв4145190 0.0 1010320
04:00+19в61649100 0.1 1009370
07:00+19вюв71754100 0.1 1008461
10:00+22вюв81353100 0.1 1008685
13:00+25юв81244100 0.0 10091387
16:00+26ююв7104262 0.0 10081926
19:00+24ю475968 0.0 1009320
22:00+17юз228497 1.0 101038
20 мая, чт
чт2001:00+15ю1194100 6.5 101141
04:00+14св1193100 7.9 101117
07:00+15ю459055 0.1 1012411
10:00+13ю4691100 1.0 1013422
13:00+19ю6860100 0.1 10121657
16:00+18ю796447 0.6 10121295
19:00+17ююз59741 0.6 1013998
22:00+13ю49893 0.6 1014194
21 мая, пт
пт2101:00+12ююз499517 0.0 1015184
04:00+11ююз379654 0.0 1016158
07:00+13ююз47885 0.0 1017239
10:00+18юз456860 0.0 1018778
13:00+21юз4455100 0.0 10191336
16:00+23ююз464797 0.0 10191957
19:00+21ю356364 0.0 1019183
22:00+17ююв337296 0.0 102024
22 мая, сб
сб2201:00+16юв35747 0.0 102072
04:00+15юв477287 0.0 1020114
07:00+16юв5117295 0.0 1021249
10:00+22ююв7115660 0.0 1020712
13:00+25ююв8104616 0.0 10201302
16:00+26ююв7104637 0.0 10191610
19:00+24ююв511585 0.0 1018453
22:00+19юв4107374 0.0 1019152